Plattsburgh, NY

3:54 PM EST on December 05, 2019 (GMT -0500)
Plattsburgh International

Weather History for KPBG - October, 2019

Change the Weather History Date:

Thursday, October 24, 2019

  Actual Average Record
Temperature  
Mean Temperature 49 °F 45 °F  
Max Temperature 62 °F 54 °F 75 °F (1963)
Min Temperature 36 °F 35 °F 21 °F (1969)
Degree Days  
Heating Degree Days 16 20  
Month to date heating degree days 370 394  
Since 1 July heating degree days 562 629  
Cooling Degree Days 0 0  
Month to date cooling degree days 0 0  
Year to date cooling degree days 406 345  
Moisture  
Dew Point 39 °F    
Average Humidity 67    
Maximum Humidity 93    
Minimum Humidity 49    
Precipitation  
Precipitation T in - 1.02 in (1992)
Month to date precipitation 3.34 0.00  
Year to date precipitation 24.96  
Sea Level Pressure  
Sea Level Pressure 30.14 in    
Wind  
Wind Speed 5 mph ()    
Max Wind Speed 18 mph    
Max Gust Speed 24 mph    
Visibility 10.0 miles    
Events Rain    
T = Trace of Precipitation, MM = Missing Value Source: Averaged Metar Reports

Daily Weather History Graph

Daily Weather History Graph

Search for Another Location

Airport or City:

Astronomy

Oct. 24, 2019 Rise Set
Actual Time 7:20 AM EDT 5:54 PM EDT
Civil Twilight 6:50 AM EDT 6:24 PM EDT
Nautical Twilight 6:16 AM EDT 6:58 PM EDT
Astronomical Twilight 5:42 AM EDT 7:32 PM EDT
Moon 2:32 AM EDT (10/24) 4:33 PM EDT (10/24)
Length of Visible Light 11h 34m
Length of Day
10h 34m
Waning Crescent, 17% of the Moon is Illuminated
Oct 24
Waning Crescent
Oct 27
New
Nov 4
First Quarter
Nov 12
Full
Nov 19
Last Quarter

Hourly Weather History & Observations

Time (EDT) Temp. Windchill Dew Point Humidity Pressure Visibility Wind Dir Wind Speed Gust Speed Precip Events Conditions
12:53 AM 52.0 °F - 39.0 °F 61% 30.07 in 10.0 mi South 4.6 mph - N/A   Overcast
1:53 AM 51.1 °F - 39.0 °F 63% 30.07 in 10.0 mi South 5.8 mph - N/A   Mostly Cloudy
2:53 AM 50.0 °F - 37.9 °F 63% 30.09 in 10.0 mi SSW 4.6 mph - N/A   Clear
3:53 AM 48.0 °F - 37.9 °F 68% 30.10 in 10.0 mi SSW 3.5 mph - N/A   Clear
4:53 AM 42.1 °F - 37.0 °F 82% 30.12 in 10.0 mi Calm Calm - N/A   Clear
5:53 AM 37.9 °F - 35.1 °F 89% 30.13 in 10.0 mi Calm Calm - N/A   Clear
6:53 AM 37.0 °F 34.5 °F 34.0 °F 89% 30.13 in 10.0 mi WSW 3.5 mph - N/A   Clear
7:53 AM 37.0 °F - 35.1 °F 93% 30.13 in 10.0 mi Calm Calm - N/A   Clear
8:53 AM 44.1 °F 40.8 °F 37.9 °F 79% 30.13 in 10.0 mi South 5.8 mph - N/A   Clear
9:53 AM 53.1 °F - 39.9 °F 61% 30.12 in 10.0 mi SSE 8.1 mph - N/A   Clear
10:53 AM 55.9 °F - 39.0 °F 53% 30.10 in 10.0 mi SSE 11.5 mph - N/A   Clear
11:53 AM 57.0 °F - 39.0 °F 51% 30.08 in 10.0 mi SSE 13.8 mph - N/A   Clear
12:53 PM 57.0 °F - 39.9 °F 53% 30.08 in 10.0 mi SSE 8.1 mph - N/A   Overcast
1:53 PM 59.0 °F - 39.9 °F 49% 30.10 in 10.0 mi West 12.7 mph 21.9 mph 0.00 in Rain Light Rain
2:53 PM 57.9 °F - 41.0 °F 53% 30.11 in 10.0 mi SW 9.2 mph 19.6 mph 0.00 in   Clear
3:53 PM 59.0 °F - 41.0 °F 51% 30.13 in 10.0 mi SW 13.8 mph 19.6 mph N/A   Mostly Cloudy
4:53 PM 57.9 °F - 41.0 °F 53% 30.13 in 10.0 mi SW 8.1 mph 20.7 mph N/A   Clear
5:53 PM 55.9 °F - 41.0 °F 57% 30.14 in 10.0 mi Variable 6.9 mph - N/A   Clear
6:53 PM 55.9 °F - 41.0 °F 57% 30.16 in 10.0 mi SSW 6.9 mph - N/A   Clear
7:53 PM 51.1 °F - 41.0 °F 68% 30.20 in 10.0 mi North 5.8 mph - N/A   Scattered Clouds
8:53 PM 48.9 °F - 42.1 °F 77% 30.21 in 10.0 mi Calm Calm - N/A   Partly Cloudy
9:53 PM 50.0 °F - 44.1 °F 80% 30.23 in 10.0 mi Calm Calm - N/A   Scattered Clouds
10:53 PM 45.0 °F - 42.1 °F 90% 30.25 in 10.0 mi Calm Calm - N/A   Partly Cloudy
11:53 PM 48.0 °F - 39.9 °F 74% 30.26 in 10.0 mi NW 4.6 mph - N/A   Clear